Location: Jaite
(41.2884°N, 81.5737°W)
Time: 12:37:16
(UTC+00:00)

BlueWalker 3 - Pass Details

Date: 13 October 2024
Orbit: 470 x 482 km, 53.2° (Epoch: 05 November)

Event Time Altitude Azimuth Distance (km) Brightness Sun altitude
Exits shadow 09:15:40 13° 14° (NNE) 1,433 4.5 -27.1°
Drops below altitude 10° 09:16:33 10° 26° (NNE) 1,634 5.0 -26.9°
Sets 09:19:18 0° 48° (NE) 2,514 6.4 -26.4°
